Torna al catalogo

STARLINK-6062

AttivoComunicazioniVLEO
NORAD 56104·PAYLOAD·🇺🇸 United States

Lanciato Mar 29, 2023 da Cape Canaveral Space Force Station

Loading…

Prossimi Passaggi (prossime 24 ore)

TLE

AggiornatoSource: CelesTrak SupGP

Epoca: Sep 14, 2026, 14:20 UTC

1 56104C 23046M   26257.59770833  .00006097  00000+0  22085-3 0  2573
2 56104  43.0001 174.4526 0001494 258.1438 168.0701 15.27570421    12

Traccia STARLINK-6062 in tempo reale con AllMySat

Download on the App Store